| time (UTC) | temp F | wind direction | speed MPH | gust MPH | rain 1hr in | rain 24hr in | rain mn in | humidity % | barometer mb |
| 20260902073825 | 74 | 197 | 0.0 | 2.0 | 0.00 | 0.00 | 0.00 | 79 | 1018.3 |
| 20260902073322 | 74 | 196 | 0.0 | 2.0 | 0.00 | 0.00 | 0.00 | 78 | 1018.2 |
| 20260902072818 | 74 | 197 | 0.0 | 2.0 | 0.00 | 0.00 | 0.00 | 78 | 1018.3 |
| 20260902072313 | 74 | 196 | 0.0 | 0.0 | 0.00 | 0.00 | 0.00 | 77 | 1018.2 |
| 20260902071813 | 74 | 196 | 0.0 | 0.0 | 0.00 | 0.00 | 0.00 | 76 | 1018.2 |
| 20260902071329 | 75 | 196 | 0.0 | 0.0 | 0.00 | 0.00 | 0.00 | 74 | 1018.2 |
| 20260902070825 | 76 | 196 | 0.0 | 0.0 | 0.00 | 0.00 | 0.00 | 73 | 1018.2 |
| 20260902070321 | 77 | 196 | 0.0 | 2.0 | 0.00 | 0.00 | 0.00 | 71 | 1018.3 |
| 20260902065816 | 77 | 196 | 0.0 | 0.0 | 0.00 | 0.00 | 0.00 | 70 | 1018.2 |
| 20260902065312 | 77 | 196 | 0.0 | 2.0 | 0.00 | 0.00 | 0.00 | 70 | 1018.2 |
| 20260902064848 | 77 | 196 | 0.0 | 2.0 | 0.00 | 0.00 | 0.00 | 71 | 1018.2 |
| 20260902064324 | 77 | 197 | 0.0 | 2.0 | 0.00 | 0.00 | 0.00 | 70 | 1018.2 |
| 20260902063824 | 78 | 197 | 0.0 | 2.0 | 0.00 | 0.00 | 0.00 | 69 | 1018.2 |
| 20260902063321 | 78 | 197 | 0.0 | 2.0 | 0.00 | 0.00 | 0.00 | 69 | 1018.2 |
| 20260902062817 | 78 | 220 | 0.0 | 2.0 | 0.00 | 0.00 | 0.00 | 69 | 1018.2 |
| 20260902062314 | 78 | 220 | 0.0 | 2.0 | 0.00 | 0.00 | 0.00 | 69 | 1018.2 |
| 20260902061810 | 78 | 220 | 0.0 | 2.0 | 0.00 | 0.00 | 0.00 | 69 | 1018.2 |
| 20260902061346 | 78 | 220 | 0.0 | 2.0 | 0.00 | 0.00 | 0.00 | 69 | 1018.2 |
| 20260902060822 | 78 | 220 | 0.0 | 2.0 | 0.00 | 0.00 | 0.00 | 69 | 1018.2 |
| 20260902060319 | 78 | 175 | 0.0 | 2.0 | 0.00 | 0.00 | 0.00 | 68 | 1018.2 |
| 20260902055817 | 78 | 175 | 0.0 | 2.0 | 0.00 | 0.00 | 0.00 | 69 | 1018.1 |
| 20260902055314 | 78 | 175 | 0.0 | 1.0 | 0.00 | 0.00 | 0.00 | 68 | 1018.1 |
| 20260902054830 | 79 | 175 | 0.0 | 2.0 | 0.00 | 0.00 | 0.00 | 67 | 1018.0 |
| 20260902054326 | 79 | 175 | 0.0 | 2.0 | 0.00 | 0.00 | 0.00 | 67 | 1018.1 |
| 20260902053822 | 79 | 138 | 0.0 | 2.0 | 0.00 | 0.00 | 0.00 | 67 | 1018.0 |
| 20260902053319 | 80 | 138 | 0.0 | 2.0 | 0.00 | 0.00 | 0.00 | 66 | 1018.0 |
| 20260902052816 | 80 | 201 | 0.0 | 2.0 | 0.00 | 0.00 | 0.00 | 66 | 1018.0 |
| 20260902052312 | 80 | 248 | 0.0 | 2.0 | 0.00 | 0.00 | 0.00 | 65 | 1018.0 |
| 20260902051812 | 80 | 248 | 0.0 | 2.0 | 0.00 | 0.00 | 0.00 | 64 | 1018.0 |
| 20260902051327 | 80 | 213 | 1.0 | 2.0 | 0.00 | 0.00 | 0.00 | 64 | 1018.0 |
| 20260902050840 | 80 | 173 | 0.0 | 3.0 | 0.00 | 0.00 | 0.00 | 64 | 1018.0 |
| 20260902050315 | 80 | 198 | 1.0 | 3.0 | 0.00 | 0.00 | 0.00 | 64 | 1017.9 |
| 20260902045810 | 80 | 219 | 1.0 | 3.0 | 0.00 | 0.00 | 0.00 | 65 | 1017.9 |
| 20260902045347 | 80 | 194 | 1.0 | 3.0 | 0.00 | 0.00 | 0.00 | 64 | 1017.9 |
| 20260902044822 | 81 | 175 | 1.0 | 3.0 | 0.00 | 0.00 | 0.00 | 64 | 1018.0 |
| 20260902044320 | 81 | 223 | 1.0 | 3.0 | 0.00 | 0.00 | 0.00 | 64 | 1017.9 |
| 20260902043820 | 81 | 227 | 1.0 | 2.0 | 0.00 | 0.00 | 0.00 | 64 | 1017.9 |
| 20260902043317 | 81 | 188 | 0.0 | 5.0 | 0.00 | 0.00 | 0.00 | 64 | 1017.8 |
| 20260902042813 | 81 | 212 | 1.0 | 3.0 | 0.00 | 0.00 | 0.00 | 64 | 1017.8 |
| 20260902042310 | 80 | 210 | 0.0 | 3.0 | 0.00 | 0.00 | 0.00 | 65 | 1017.9 |
| 20260902041847 | 80 | 213 | 1.0 | 3.0 | 0.00 | 0.00 | 0.00 | 66 | 1017.7 |
| 20260902041342 | 80 | 144 | 1.0 | 3.0 | 0.00 | 0.00 | 0.00 | 66 | 1017.7 |
| 20260902040817 | 80 | 209 | 0.0 | 2.0 | 0.00 | 0.00 | 0.00 | 66 | 1017.7 |
| 20260902040314 | 80 | 190 | 0.0 | 2.0 | 0.00 | 0.00 | 0.00 | 67 | 1017.7 |
| 20260902035814 | 79 | 105 | 0.0 | 2.0 | 0.00 | 0.00 | 0.00 | 68 | 1017.7 |
| 20260902035310 | 79 | 105 | 0.0 | 2.0 | 0.00 | 0.00 | 0.00 | 68 | 1017.7 |
| 20260902034826 | 79 | 105 | 0.0 | 2.0 | 0.00 | 0.00 | 0.00 | 70 | 1017.6 |
| 20260902034322 | 78 | 105 | 0.0 | 2.0 | 0.00 | 0.00 | 0.00 | 72 | 1017.6 |
| 20260902033818 | 76 | 105 | 0.0 | 2.0 | 0.00 | 0.00 | 0.00 | 77 | 1017.6 |
| 20260902033314 | 75 | 105 | 0.0 | 2.0 | 0.00 | 0.00 | 0.00 | 81 | 1017.6 |
| 20260902032810 | 74 | 120 | 0.0 | 0.0 | 0.00 | 0.00 | 0.00 | 82 | 1017.7 |
| 20260902032325 | 74 | 120 | 0.0 | 0.0 | 0.00 | 0.00 | 0.00 | 82 | 1017.7 |
| 20260902031826 | 75 | 120 | 0.0 | 0.0 | 0.00 | 0.00 | 0.00 | 82 | 1017.6 |
| 20260902031341 | 75 | 120 | 0.0 | 0.0 | 0.00 | 0.00 | 0.00 | 81 | 1017.6 |
| 20260902030837 | 75 | 120 | 0.0 | 0.0 | 0.00 | 0.00 | 0.00 | 82 | 1017.4 |
| 20260902030310 | 75 | 120 | 0.0 | 0.0 | 0.00 | 0.00 | 0.00 | 81 | 1017.4 |
| 20260902025825 | 76 | 120 | 0.0 | 0.0 | 0.00 | 0.00 | 0.00 | 80 | 1017.4 |
| 20260902025321 | 76 | 120 | 0.0 | 0.0 | 0.00 | 0.00 | 0.00 | 80 | 1017.4 |
| 20260902024838 | 76 | 120 | 0.0 | 0.0 | 0.00 | 0.00 | 0.00 | 78 | 1017.3 |
| 20260902024313 | 76 | 120 | 0.0 | 0.0 | 0.00 | 0.00 | 0.00 | 78 | 1017.2 |
| 20260902023810 | 76 | 120 | 0.0 | 0.0 | 0.00 | 0.00 | 0.00 | 80 | 1017.1 |
| 20260902023331 | 76 | 120 | 0.0 | 0.0 | 0.00 | 0.00 | 0.00 | 79 | 1017.1 |
| 20260902022827 | 76 | 120 | 0.0 | 0.0 | 0.00 | 0.00 | 0.00 | 79 | 1017.0 |
| 20260902022344 | 77 | 120 | 0.0 | 0.0 | 0.00 | 0.00 | 0.00 | 79 | 1017.0 |
| 20260902021820 | 77 | 120 | 0.0 | 0.0 | 0.00 | 0.00 | 0.00 | 77 | 1016.9 |
| 20260902021316 | 78 | 120 | 0.0 | 0.0 | 0.00 | 0.00 | 0.00 | 77 | 1016.9 |
| 20260902020811 | 78 | 120 | 0.0 | 0.0 | 0.00 | 0.00 | 0.00 | 75 | 1016.9 |
| 20260902020325 | 78 | 120 | 0.0 | 0.0 | 0.00 | 0.00 | 0.00 | 75 | 1016.7 |
| 20260902015821 | 79 | 120 | 0.0 | 0.0 | 0.00 | 0.00 | 0.00 | 74 | 1016.7 |
| 20260902015317 | 80 | 120 | 0.0 | 0.0 | 0.00 | 0.00 | 0.00 | 72 | 1016.6 |
| 20260902014818 | 80 | 120 | 0.0 | 1.0 | 0.00 | 0.00 | 0.00 | 71 | 1016.5 |
| 20260902014313 | 80 | 120 | 0.0 | 2.0 | 0.00 | 0.00 | 0.00 | 71 | 1016.5 |
| 20260902013810 | 80 | 109 | 0.0 | 0.0 | 0.00 | 0.00 | 0.00 | 71 | 1016.5 |
| 20260902013326 | 80 | 109 | 0.0 | 2.0 | 0.00 | 0.00 | 0.00 | 71 | 1016.4 |
| 20260902012821 | 81 | 109 | 0.0 | 2.0 | 0.00 | 0.00 | 0.00 | 71 | 1016.4 |
| 20260902012317 | 80 | 109 | 0.0 | 2.0 | 0.00 | 0.00 | 0.00 | 71 | 1016.4 |
| 20260902011813 | 81 | 109 | 0.0 | 2.0 | 0.00 | 0.00 | 0.00 | 71 | 1016.3 |
| 20260902011330 | 80 | 109 | 0.0 | 2.0 | 0.00 | 0.00 | 0.00 | 72 | 1016.4 |
| 20260902010810 | 80 | 109 | 0.0 | 0.0 | 0.00 | 0.00 | 0.00 | 73 | 1016.3 |
| 20260902010327 | 80 | 109 | 0.0 | 0.0 | 0.00 | 0.00 | 0.00 | 73 | 1016.3 |
| 20260902005844 | 81 | 109 | 0.0 | 0.0 | 0.00 | 0.00 | 0.00 | 72 | 1016.3 |
| 20260902005338 | 81 | 109 | 0.0 | 0.0 | 0.00 | 0.00 | 0.00 | 71 | 1016.3 |
| 20260902004815 | 82 | 109 | 0.0 | 0.0 | 0.00 | 0.00 | 0.00 | 71 | 1016.3 |
| 20260902004311 | 83 | 109 | 0.0 | 0.0 | 0.00 | 0.00 | 0.00 | 68 | 1016.4 |
| 20260902003847 | 83 | 109 | 0.0 | 0.0 | 0.00 | 0.00 | 0.00 | 66 | 1016.4 |
| 20260902003321 | 84 | 109 | 0.0 | 0.0 | 0.00 | 0.00 | 0.00 | 66 | 1016.5 |
| 20260902002837 | 84 | 109 | 0.0 | 2.0 | 0.00 | 0.00 | 0.00 | 65 | 1016.5 |
| 20260902002312 | 85 | 109 | 0.0 | 2.0 | 0.00 | 0.00 | 0.00 | 66 | 1016.5 |
| 20260902001813 | 86 | 109 | 0.0 | 2.0 | 0.00 | 0.00 | 0.00 | 63 | 1016.6 |
| 20260902001349 | 87 | 109 | 0.0 | 2.0 | 0.00 | 0.00 | 0.00 | 57 | 1016.6 |
| 20260902000825 | 88 | 109 | 0.0 | 2.0 | 0.00 | 0.00 | 0.00 | 57 | 1016.6 |
| 20260902000322 | 89 | 109 | 0.0 | 2.0 | 0.00 | 0.00 | 0.00 | 54 | 1016.6 |
| 20260901235816 | 90 | 109 | 0.0 | 2.0 | 0.00 | 0.00 | 0.00 | 53 | 1016.7 |
| 20260901235312 | 91 | 109 | 0.0 | 2.0 | 0.00 | 0.00 | 0.00 | 52 | 1016.7 |
| 20260901234828 | 91 | 108 | 1.0 | 2.0 | 0.00 | 0.00 | 0.00 | 51 | 1016.7 |
| 20260901234324 | 92 | 92 | 0.0 | 2.0 | 0.00 | 0.00 | 0.00 | 49 | 1016.7 |
| 20260901233824 | 92 | 92 | 0.0 | 2.0 | 0.00 | 0.00 | 0.00 | 49 | 1016.8 |
| 20260901233321 | 92 | 190 | 1.0 | 3.0 | 0.00 | 0.00 | 0.00 | 49 | 1016.8 |
| 20260901232818 | 93 | 106 | 1.0 | 3.0 | 0.00 | 0.00 | 0.00 | 47 | 1016.8 |
| 20260901232315 | 93 | 95 | 1.0 | 4.0 | 0.00 | 0.00 | 0.00 | 48 | 1016.8 |
| 20260901231810 | 93 | 130 | 1.0 | 7.0 | 0.00 | 0.00 | 0.00 | 47 | 1016.8 |
| 20260901231328 | 93 | 101 | 2.0 | 7.0 | 0.00 | 0.00 | 0.00 | 46 | 1016.8 |
| 20260901230823 | 94 | 117 | 2.0 | 4.0 | 0.00 | 0.00 | 0.00 | 46 | 1016.8 |
| 20260901230322 | 94 | 175 | 2.0 | 4.0 | 0.00 | 0.00 | 0.00 | 45 | 1016.8 |
| 20260901225838 | 94 | 129 | 1.0 | 7.0 | 0.00 | 0.00 | 0.00 | 45 | 1016.8 |
| 20260901225313 | 94 | 98 | 2.0 | 7.0 | 0.00 | 0.00 | 0.00 | 45 | 1016.8 |
| 20260901224810 | 95 | 72 | 1.0 | 4.0 | 0.00 | 0.00 | 0.00 | 45 | 1016.7 |
| 20260901224325 | 95 | 78 | 2.0 | 7.0 | 0.00 | 0.00 | 0.00 | 43 | 1016.8 |
| 20260901223822 | 95 | 150 | 3.0 | 7.0 | 0.00 | 0.00 | 0.00 | 43 | 1016.7 |
| 20260901223317 | 95 | 109 | 2.0 | 4.0 | 0.00 | 0.00 | 0.00 | 44 | 1016.8 |
| 20260901222813 | 95 | 121 | 2.0 | 4.0 | 0.00 | 0.00 | 0.00 | 43 | 1016.8 |
| 20260901222313 | 95 | 94 | 2.0 | 5.0 | 0.00 | 0.00 | 0.00 | 45 | 1016.8 |
| 20260901221829 | 95 | 222 | 3.0 | 5.0 | 0.00 | 0.00 | 0.00 | 42 | 1016.7 |
| 20260901221323 | 95 | 107 | 2.0 | 4.0 | 0.00 | 0.00 | 0.00 | 45 | 1016.8 |
| 20260901220819 | 95 | 161 | 1.0 | 4.0 | 0.00 | 0.00 | 0.00 | 45 | 1016.7 |
| 20260901220315 | 95 | 147 | 1.0 | 4.0 | 0.00 | 0.00 | 0.00 | 45 | 1016.7 |
| 20260901215811 | 95 | 138 | 2.0 | 4.0 | 0.00 | 0.00 | 0.00 | 45 | 1016.7 |
| 20260901215328 | 95 | 112 | 1.0 | 3.0 | 0.00 | 0.00 | 0.00 | 44 | 1016.7 |
| 20260901214824 | 96 | 128 | 1.0 | 5.0 | 0.00 | 0.00 | 0.00 | 46 | 1016.7 |
| 20260901214325 | 96 | 157 | 2.0 | 8.0 | 0.00 | 0.00 | 0.00 | 43 | 1016.7 |
| 20260901213821 | 96 | 198 | 3.0 | 8.0 | 0.00 | 0.00 | 0.00 | 42 | 1016.8 |
| 20260901213317 | 96 | 105 | 1.0 | 6.0 | 0.00 | 0.00 | 0.00 | 45 | 1016.7 |
| 20260901212814 | 96 | 206 | 0.0 | 5.0 | 0.00 | 0.00 | 0.00 | 46 | 1016.8 |
| 20260901212310 | 96 | 135 | 2.0 | 4.0 | 0.00 | 0.00 | 0.00 | 46 | 1016.9 |
| 20260901211826 | 95 | 128 | 2.0 | 4.0 | 0.00 | 0.00 | 0.00 | 46 | 1016.9 |
| 20260901211322 | 95 | 49 | 1.0 | 3.0 | 0.00 | 0.00 | 0.00 | 45 | 1017.1 |
| 20260901210822 | 95 | 130 | 1.0 | 4.0 | 0.00 | 0.00 | 0.00 | 45 | 1017.2 |
| 20260901210317 | 96 | 126 | 1.0 | 3.0 | 0.00 | 0.00 | 0.00 | 47 | 1017.2 |
| 20260901205811 | 96 | 9 | 0.0 | 2.0 | 0.00 | 0.00 | 0.00 | 51 | 1017.2 |
| 20260901205328 | 96 | 336 | 1.0 | 2.0 | 0.00 | 0.00 | 0.00 | 47 | 1017.3 |
| 20260901204824 | 95 | 25 | 0.0 | 2.0 | 0.00 | 0.00 | 0.00 | 49 | 1017.4 |
| 20260901204320 | 95 | 25 | 0.0 | 2.0 | 0.00 | 0.00 | 0.00 | 52 | 1017.4 |
| 20260901203816 | 92 | 25 | 0.0 | 2.0 | 0.00 | 0.00 | 0.00 | 57 | 1017.4 |
| 20260901203318 | 91 | 25 | 0.0 | 3.0 | 0.00 | 0.00 | 0.00 | 58 | 1017.5 |
| 20260901202834 | 92 | 25 | 1.0 | 3.0 | 0.00 | 0.00 | 0.00 | 53 | 1017.5 |
| 20260901202309 | 92 | 49 | 1.0 | 2.0 | 0.00 | 0.00 | 0.00 | 56 | 1017.6 |
| 20260901201826 | 91 | 49 | 0.0 | 2.0 | 0.00 | 0.00 | 0.00 | 58 | 1017.7 |
| 20260901201323 | 91 | 49 | 0.0 | 2.0 | 0.00 | 0.00 | 0.00 | 59 | 1017.8 |
| 20260901200839 | 92 | 49 | 0.0 | 2.0 | 0.00 | 0.00 | 0.00 | 54 | 1017.9 |
| 20260901200314 | 92 | 49 | 0.0 | 3.0 | 0.00 | 0.00 | 0.00 | 52 | 1017.9 |
| 20260901195850 | 92 | 98 | 1.0 | 2.0 | 0.00 | 0.00 | 0.00 | 51 | 1018.0 |
| 20260901195324 | 93 | 60 | 0.0 | 2.0 | 0.00 | 0.00 | 0.00 | 51 | 1017.9 |
| 20260901194824 | 95 | 114 | 0.0 | 2.0 | 0.00 | 0.00 | 0.00 | 53 | 1018.0 |
| 20260901194340 | 93 | 115 | 0.0 | 2.0 | 0.00 | 0.00 | 0.00 | 56 | 1018.0 |
| 20260901193835 | 91 | 115 | 0.0 | 2.0 | 0.00 | 0.00 | 0.00 | 53 | 1018.1 |
| 20260901193331 | 92 | 80 | 0.0 | 2.0 | 0.00 | 0.00 | 0.00 | 52 | 1018.1 |
| 20260901192828 | 93 | 30 | 0.0 | 2.0 | 0.00 | 0.00 | 0.00 | 52 | 1018.1 |
| 20260901192324 | 94 | 39 | 1.0 | 2.0 | 0.00 | 0.00 | 0.00 | 52 | 1018.2 |
| 20260901191820 | 91 | 335 | 0.0 | 2.0 | 0.00 | 0.00 | 0.00 | 54 | 1018.3 |
| 20260901191316 | 90 | 335 | 0.0 | 1.0 | 0.00 | 0.00 | 0.00 | 57 | 1018.4 |
| 20260901190812 | 91 | 335 | 0.0 | 2.0 | 0.00 | 0.00 | 0.00 | 55 | 1018.3 |
| 20260901190312 | 91 | 335 | 0.0 | 2.0 | 0.00 | 0.00 | 0.00 | 53 | 1018.5 |
| 20260901185828 | 92 | 17 | 1.0 | 2.0 | 0.00 | 0.00 | 0.00 | 53 | 1018.5 |
| 20260901185324 | 92 | 17 | 1.0 | 3.0 | 0.00 | 0.00 | 0.00 | 53 | 1018.6 |
| 20260901184822 | 92 | 345 | 1.0 | 3.0 | 0.00 | 0.00 | 0.00 | 51 | 1018.7 |
| 20260901184317 | 93 | 9 | 0.0 | 2.0 | 0.00 | 0.00 | 0.00 | 49 | 1018.7 |
| 20260901183813 | 94 | 355 | 0.0 | 2.0 | 0.00 | 0.00 | 0.00 | 47 | 1018.7 |
| 20260901183309 | 94 | 355 | 0.0 | 2.0 | 0.00 | 0.00 | 0.00 | 47 | 1018.7 |
| 20260901182809 | 95 | 326 | 0.0 | 2.0 | 0.00 | 0.00 | 0.00 | 48 | 1018.8 |
| 20260901182327 | 94 | 238 | 0.0 | 3.0 | 0.00 | 0.00 | 0.00 | 51 | 1018.9 |
| 20260901181823 | 92 | 262 | 2.0 | 4.0 | 0.00 | 0.00 | 0.00 | 47 | 1019.0 |
| 20260901181319 | 93 | 240 | 2.0 | 5.0 | 0.00 | 0.00 | 0.00 | 46 | 1019.1 |
| 20260901180815 | 93 | 159 | 2.0 | 6.0 | 0.00 | 0.00 | 0.00 | 44 | 1019.1 |
| 20260901180311 | 93 | 228 | 4.0 | 6.0 | 0.00 | 0.00 | 0.00 | 48 | 1019.3 |
| 20260901175826 | 92 | 148 | 0.0 | 2.0 | 0.00 | 0.00 | 0.00 | 47 | 1019.3 |
| 20260901175322 | 92 | 279 | 0.0 | 3.0 | 0.00 | 0.00 | 0.00 | 45 | 1019.4 |
| 20260901174822 | 92 | 304 | 1.0 | 7.0 | 0.00 | 0.00 | 0.00 | 46 | 1019.4 |
| 20260901174317 | 92 | 223 | 3.0 | 6.0 | 0.00 | 0.00 | 0.00 | 46 | 1019.5 |
| 20260901173813 | 94 | 232 | 4.0 | 6.0 | 0.00 | 0.00 | 0.00 | 45 | 1019.5 |
| 20260901173310 | 93 | 234 | 3.0 | 12.0 | 0.00 | 0.00 | 0.00 | 47 | 1019.6 |
| 20260901172826 | 93 | 224 | 4.0 | 12.0 | 0.00 | 0.00 | 0.00 | 47 | 1019.6 |
| 20260901172343 | 94 | 251 | 5.0 | 9.0 | 0.00 | 0.00 | 0.00 | 47 | 1019.7 |
| 20260901171838 | 92 | 204 | 1.0 | 7.0 | 0.00 | 0.00 | 0.00 | 50 | 1019.7 |
| 20260901171311 | 92 | 267 | 3.0 | 7.0 | 0.00 | 0.00 | 0.00 | 50 | 1019.8 |
| 20260901170827 | 92 | 254 | 2.0 | 9.0 | 0.00 | 0.00 | 0.00 | 54 | 1019.8 |
| 20260901170327 | 92 | 171 | 3.0 | 9.0 | 0.00 | 0.00 | 0.00 | 53 | 1019.8 |
| 20260901165843 | 91 | 258 | 4.0 | 10.0 | 0.00 | 0.00 | 0.00 | 52 | 1019.9 |
| 20260901165338 | 91 | 256 | 5.0 | 10.0 | 0.00 | 0.00 | 0.00 | 52 | 1020.0 |
| 20260901164834 | 91 | 242 | 3.0 | 9.0 | 0.00 | 0.00 | 0.00 | 54 | 1020.1 |
| 20260901164350 | 91 | 329 | 0.0 | 7.0 | 0.00 | 0.00 | 0.00 | 55 | 1020.2 |
| 20260901163825 | 90 | 263 | 4.0 | 9.0 | 0.00 | 0.00 | 0.00 | 55 | 1020.3 |
| 20260901163321 | 90 | 247 | 4.0 | 9.0 | 0.00 | 0.00 | 0.00 | 54 | 1020.3 |
| 20260901162817 | 89 | 233 | 3.0 | 8.0 | 0.00 | 0.00 | 0.00 | 56 | 1020.3 |
| 20260901162334 | 89 | 202 | 2.0 | 8.0 | 0.00 | 0.00 | 0.00 | 56 | 1020.4 |
| 20260901161809 | 90 | 206 | 2.0 | 7.0 | 0.00 | 0.00 | 0.00 | 57 | 1020.4 |
| 20260901161310 | 89 | 335 | 1.0 | 7.0 | 0.00 | 0.00 | 0.00 | 59 | 1020.3 |
| 20260901160847 | 89 | 220 | 3.0 | 10.0 | 0.00 | 0.00 | 0.00 | 57 | 1020.4 |
| 20260901160321 | 89 | 271 | 4.0 | 10.0 | 0.00 | 0.00 | 0.00 | 58 | 1020.3 |
| 20260901155817 | 88 | 233 | 3.0 | 8.0 | 0.00 | 0.00 | 0.00 | 59 | 1020.3 |
| 20260901155313 | 88 | 239 | 5.0 | 10.0 | 0.00 | 0.00 | 0.00 | 57 | 1020.3 |
| 20260901154828 | 87 | 259 | 3.0 | 10.0 | 0.00 | 0.00 | 0.00 | 56 | 1020.3 |
| 20260901154325 | 87 | 265 | 6.0 | 9.0 | 0.00 | 0.00 | 0.00 | 57 | 1020.4 |
| 20260901153821 | 87 | 233 | 4.0 | 9.0 | 0.00 | 0.00 | 0.00 | 58 | 1020.3 |
| 20260901153321 | 87 | 244 | 3.0 | 9.0 | 0.00 | 0.00 | 0.00 | 59 | 1020.3 |
| 20260901152817 | 87 | 277 | 5.0 | 9.0 | 0.00 | 0.00 | 0.00 | 59 | 1020.3 |
| 20260901152334 | 87 | 207 | 4.0 | 9.0 | 0.00 | 0.00 | 0.00 | 60 | 1020.2 |
| 20260901151849 | 86 | 265 | 3.0 | 8.0 | 0.00 | 0.00 | 0.00 | 60 | 1020.3 |
| 20260901151345 | 86 | 234 | 3.0 | 8.0 | 0.00 | 0.00 | 0.00 | 60 | 1020.3 |
| 20260901150819 | 86 | 231 | 4.0 | 8.0 | 0.00 | 0.00 | 0.00 | 60 | 1020.3 |
| 20260901150315 | 86 | 244 | 4.0 | 9.0 | 0.00 | 0.00 | 0.00 | 60 | 1020.3 |
| 20260901145811 | 85 | 232 | 4.0 | 9.0 | 0.00 | 0.00 | 0.00 | 61 | 1020.3 |
| 20260901145327 | 85 | 253 | 3.0 | 7.0 | 0.00 | 0.00 | 0.00 | 64 | 1020.3 |
| 20260901144826 | 84 | 225 | 3.0 | 7.0 | 0.00 | 0.00 | 0.00 | 65 | 1020.3 |
| 20260901144323 | 84 | 240 | 4.0 | 7.0 | 0.00 | 0.00 | 0.00 | 65 | 1020.4 |
| 20260901143819 | 83 | 228 | 3.0 | 6.0 | 0.00 | 0.00 | 0.00 | 66 | 1020.4 |
| 20260901143315 | 83 | 237 | 2.0 | 4.0 | 0.00 | 0.00 | 0.00 | 66 | 1020.4 |
| 20260901142811 | 83 | 219 | 1.0 | 4.0 | 0.00 | 0.00 | 0.00 | 69 | 1020.4 |
| 20260901142327 | 82 | 165 | 1.0 | 4.0 | 0.00 | 0.00 | 0.00 | 68 | 1020.5 |
| 20260901141822 | 82 | 203 | 2.0 | 7.0 | 0.00 | 0.00 | 0.00 | 69 | 1020.4 |
| 20260901141322 | 81 | 217 | 2.0 | 7.0 | 0.00 | 0.00 | 0.00 | 69 | 1020.4 |
| 20260901140818 | 81 | 231 | 2.0 | 4.0 | 0.00 | 0.00 | 0.00 | 69 | 1020.4 |
| 20260901140315 | 81 | 196 | 2.0 | 7.0 | 0.00 | 0.00 | 0.00 | 70 | 1020.5 |
| 20260901135812 | 81 | 138 | 3.0 | 7.0 | 0.00 | 0.00 | 0.00 | 69 | 1020.4 |
| 20260901135348 | 81 | 200 | 1.0 | 6.0 | 0.00 | 0.00 | 0.00 | 72 | 1020.4 |
| 20260901134823 | 80 | 236 | 2.0 | 6.0 | 0.00 | 0.00 | 0.00 | 72 | 1020.6 |
| 20260901134339 | 79 | 232 | 3.0 | 6.0 | 0.00 | 0.00 | 0.00 | 72 | 1020.5 |
| 20260901133815 | 78 | 105 | 1.0 | 2.0 | 0.00 | 0.00 | 0.00 | 75 | 1020.5 |
| 20260901133315 | 78 | 223 | 1.0 | 5.0 | 0.00 | 0.00 | 0.00 | 76 | 1020.4 |
| 20260901132813 | 78 | 188 | 2.0 | 5.0 | 0.00 | 0.00 | 0.00 | 75 | 1020.4 |
| 20260901132328 | 77 | 155 | 1.0 | 3.0 | 0.00 | 0.00 | 0.00 | 76 | 1020.5 |
| 20260901131845 | 77 | 234 | 1.0 | 3.0 | 0.00 | 0.00 | 0.00 | 77 | 1020.4 |
| 20260901131320 | 76 | 141 | 0.0 | 2.0 | 0.00 | 0.00 | 0.00 | 78 | 1020.4 |
| 20260901130817 | 75 | 165 | 0.0 | 2.0 | 0.00 | 0.00 | 0.00 | 79 | 1020.4 |
| 20260901130313 | 74 | 126 | 0.0 | 1.0 | 0.00 | 0.00 | 0.00 | 81 | 1020.4 |
| 20260901125829 | 73 | 126 | 0.0 | 0.0 | 0.00 | 0.00 | 0.00 | 86 | 1020.4 |
| 20260901125310 | 71 | 126 | 0.0 | 0.0 | 0.00 | 0.00 | 0.00 | 86 | 1020.4 |
| 20260901124826 | 71 | 126 | 0.0 | 0.0 | 0.00 | 0.00 | 0.00 | 89 | 1020.3 |
| 20260901124323 | 70 | 126 | 0.0 | 0.0 | 0.00 | 0.00 | 0.00 | 89 | 1020.3 |
| 20260901123840 | 69 | 126 | 0.0 | 0.0 | 0.00 | 0.00 | 0.00 | 88 | 1020.2 |
| 20260901123336 | 68 | 126 | 0.0 | 0.0 | 0.00 | 0.00 | 0.00 | 89 | 1020.1 |
| 20260901122810 | 68 | 126 | 0.0 | 0.0 | 0.00 | 0.00 | 0.00 | 90 | 1019.9 |
| 20260901122326 | 68 | 126 | 0.0 | 0.0 | 0.00 | 0.00 | 0.00 | 90 | 1019.9 |
| 20260901121823 | 67 | 126 | 0.0 | 0.0 | 0.00 | 0.00 | 0.00 | 90 | 1019.8 |
| 20260901121318 | 67 | 126 | 0.0 | 0.0 | 0.00 | 0.00 | 0.00 | 90 | 1019.8 |
| 20260901120818 | 67 | 126 | 0.0 | 0.0 | 0.00 | 0.00 | 0.00 | 90 | 1019.7 |
| 20260901120315 | 67 | 126 | 0.0 | 0.0 | 0.00 | 0.00 | 0.00 | 90 | 1019.6 |
| 20260901115811 | 67 | 126 | 0.0 | 0.0 | 0.00 | 0.00 | 0.00 | 89 | 1019.5 |
| 20260901115348 | 67 | 126 | 0.0 | 0.0 | 0.00 | 0.00 | 0.00 | 89 | 1019.5 |
| 20260901114823 | 68 | 126 | 0.0 | 2.0 | 0.00 | 0.00 | 0.00 | 88 | 1019.5 |
| 20260901114319 | 68 | 126 | 0.0 | 2.0 | 0.00 | 0.00 | 0.00 | 89 | 1019.4 |
| 20260901113815 | 68 | 126 | 0.0 | 0.0 | 0.00 | 0.00 | 0.00 | 88 | 1019.3 |
| 20260901113311 | 68 | 126 | 0.0 | 0.0 | 0.00 | 0.00 | 0.00 | 89 | 1019.3 |
| 20260901112812 | 68 | 126 | 0.0 | 0.0 | 0.00 | 0.00 | 0.00 | 89 | 1019.3 |
| 20260901112328 | 67 | 126 | 0.0 | 0.0 | 0.00 | 0.00 | 0.00 | 89 | 1019.3 |
| 20260901111825 | 67 | 126 | 0.0 | 0.0 | 0.00 | 0.00 | 0.00 | 89 | 1019.1 |
| 20260901111342 | 67 | 126 | 0.0 | 0.0 | 0.00 | 0.00 | 0.00 | 88 | 1019.1 |
| 20260901110817 | 67 | 126 | 0.0 | 0.0 | 0.00 | 0.00 | 0.00 | 89 | 1019.2 |
| 20260901110312 | 67 | 126 | 0.0 | 0.0 | 0.00 | 0.00 | 0.00 | 88 | 1019.1 |
| 20260901105828 | 67 | 126 | 0.0 | 0.0 | 0.00 | 0.00 | 0.00 | 88 | 1019.1 |
| 20260901105323 | 67 | 126 | 0.0 | 0.0 | 0.00 | 0.00 | 0.00 | 88 | 1019.1 |
| 20260901104824 | 67 | 126 | 0.0 | 0.0 | 0.00 | 0.00 | 0.00 | 88 | 1019.1 |
| 20260901104319 | 67 | 126 | 0.0 | 0.0 | 0.00 | 0.00 | 0.00 | 88 | 1019.1 |
| 20260901103815 | 68 | 126 | 0.0 | 0.0 | 0.00 | 0.00 | 0.00 | 86 | 1019.0 |
| 20260901103331 | 68 | 126 | 0.0 | 0.0 | 0.00 | 0.00 | 0.00 | 86 | 1019.0 |
| 20260901102827 | 68 | 126 | 0.0 | 0.0 | 0.00 | 0.00 | 0.00 | 87 | 1019.0 |
| 20260901102322 | 68 | 126 | 0.0 | 0.0 | 0.00 | 0.00 | 0.00 | 86 | 1019.0 |
| 20260901101818 | 68 | 126 | 0.0 | 0.0 | 0.00 | 0.00 | 0.00 | 86 | 1019.0 |
| 20260901101334 | 68 | 126 | 0.0 | 0.0 | 0.00 | 0.00 | 0.00 | 86 | 1019.0 |
| 20260901100813 | 69 | 126 | 0.0 | 0.0 | 0.00 | 0.00 | 0.00 | 85 | 1019.1 |
| 20260901100309 | 69 | 126 | 0.0 | 0.0 | 0.00 | 0.00 | 0.00 | 84 | 1019.0 |
| 20260901095824 | 69 | 126 | 0.0 | 0.0 | 0.00 | 0.00 | 0.00 | 85 | 1019.0 |
| 20260901095320 | 69 | 126 | 0.0 | 0.0 | 0.00 | 0.00 | 0.00 | 84 | 1019.1 |
| 20260901094816 | 69 | 126 | 0.0 | 0.0 | 0.00 | 0.00 | 0.00 | 84 | 1019.0 |
| 20260901094312 | 69 | 126 | 0.0 | 0.0 | 0.00 | 0.00 | 0.00 | 84 | 1019.0 |
| 20260901093827 | 69 | 126 | 0.0 | 0.0 | 0.00 | 0.00 | 0.00 | 83 | 1019.0 |
| 20260901093323 | 69 | 126 | 0.0 | 0.0 | 0.00 | 0.00 | 0.00 | 83 | 1018.9 |
| 20260901092844 | 70 | 126 | 0.0 | 0.0 | 0.00 | 0.00 | 0.00 | 83 | 1018.9 |
| 20260901092320 | 70 | 126 | 0.0 | 2.0 | 0.00 | 0.00 | 0.00 | 81 | 1018.9 |
| 20260901091815 | 71 | 126 | 0.0 | 2.0 | 0.00 | 0.00 | 0.00 | 80 | 1018.8 |
| 20260901091331 | 71 | 126 | 0.0 | 2.0 | 0.00 | 0.00 | 0.00 | 81 | 1018.8 |
| 20260901090827 | 70 | 126 | 0.0 | 2.0 | 0.00 | 0.00 | 0.00 | 82 | 1018.7 |
| 20260901090321 | 70 | 126 | 0.0 | 0.0 | 0.00 | 0.00 | 0.00 | 81 | 1018.7 |
| 20260901085817 | 71 | 126 | 0.0 | 2.0 | 0.00 | 0.00 | 0.00 | 81 | 1018.7 |
| 20260901085313 | 70 | 126 | 0.0 | 2.0 | 0.00 | 0.00 | 0.00 | 81 | 1018.8 |
| 20260901084814 | 70 | 126 | 0.0 | 0.0 | 0.00 | 0.00 | 0.00 | 82 | 1018.7 |
| 20260901084311 | 70 | 126 | 0.0 | 1.0 | 0.00 | 0.00 | 0.00 | 81 | 1018.7 |
| 20260901083827 | 70 | 126 | 0.0 | 1.0 | 0.00 | 0.00 | 0.00 | 81 | 1018.7 |
| 20260901083323 | 70 | 126 | 0.0 | 0.0 | 0.00 | 0.00 | 0.00 | 82 | 1018.7 |
| 20260901082820 | 70 | 126 | 0.0 | 0.0 | 0.00 | 0.00 | 0.00 | 82 | 1018.7 |
| 20260901082316 | 70 | 126 | 0.0 | 2.0 | 0.00 | 0.00 | 0.00 | 82 | 1018.7 |
| 20260901081812 | 70 | 126 | 0.0 | 2.0 | 0.00 | 0.00 | 0.00 | 84 | 1018.6 |
| 20260901081313 | 69 | 126 | 0.0 | 0.0 | 0.00 | 0.00 | 0.00 | 84 | 1018.6 |
| 20260901080809 | 69 | 126 | 0.0 | 0.0 | 0.00 | 0.00 | 0.00 | 84 | 1018.6 |
| 20260901080325 | 69 | 126 | 0.0 | 0.0 | 0.00 | 0.00 | 0.00 | 84 | 1018.6 |
| 20260901075820 | 70 | 126 | 0.0 | 0.0 | 0.00 | 0.00 | 0.00 | 83 | 1018.6 |
| 20260901075316 | 70 | 126 | 0.0 | 0.0 | 0.00 | 0.00 | 0.00 | 82 | 1018.7 |
| 20260901074812 | 70 | 126 | 0.0 | 0.0 | 0.00 | 0.00 | 0.00 | 82 | 1018.7 |
| 20260901074328 | 70 | 126 | 0.0 | 0.0 | 0.00 | 0.00 | 0.00 | 80 | 1018.7 |